Location: Brachbach
(49.1847°N, 9.7240°E)
Time: 21:48:39
(UTC+00:00)

Cosmos 2219 Rocket - Pass Details

Date: 15 August 2024
Orbit: 826 x 846 km, 71.0° (Epoch: 09 September)

Event Time Altitude Azimuth Distance (km) Brightness Sun altitude
Exits shadow 00:30:02 55° 254° (WSW) 1,014 2.3 -25.3°
Maximum altitude 00:31:01 65° 302° (WNW) 930 2.4 -25.2°
Drops below altitude 10° 00:36:42 10° 24° (NNE) 2,481 5.7 -24.9°
Sets 00:39:11 0° 28° (NNE) 3,420 6.7 -24.8°
